Change the Weather History Date:

Wednesday, February 13, 2013

  Actual Average Record
Temperature  
Mean Temperature 54 °F 49 °F  
Max Temperature 59 °F 60 °F 73 °F (2009)
Min Temperature 48 °F 38 °F 23 °F (2012)
Degree Days  
Heating Degree Days 11 16  
Month to date heating degree days 189 220  
Since 1 July heating degree days 1379 1712  
Cooling Degree Days 0 0  
Month to date cooling degree days 0 0  
Year to date cooling degree days 24 1  
Growing Degree Days 2 (Base 50)    
Moisture  
Dew Point 48 °F    
Average Humidity 90    
Maximum Humidity 100    
Minimum Humidity 68    
Precipitation  
Precipitation 0.11 in 0.13 in 1.00 in (2007)
Month to date precipitation 2.55 1.44  
Year to date precipitation 3.97 5.07  
Sea Level Pressure  
Sea Level Pressure 29.79 in    
Wind  
Wind Speed 5 mph (WSW)    
Max Wind Speed 24 mph    
Max Gust Speed 32 mph    
Visibility 6 miles    
Events Rain    
T = Trace of Precipitation, MM = Missing Value Source: NWS Daily Summary

Daily Weather History Graph

Daily Weather History Graph

Search for Another Location

Airport or City:

Trip Planner

Search our weather history database for the weather conditions in past years. The results will help you decide how hot, cold, wet, or windy it might be!

Date:

Astronomy

Feb. 13, 2013 Rise Set
Actual Time 7:10 AM EST 6:06 PM EST
Civil Twilight 6:44 AM EST 6:32 PM EST
Nautical Twilight 6:15 AM EST 7:01 PM EST
Astronomical Twilight 5:46 AM EST 7:30 PM EST
Moon 8:51 AM EST (2/13) 9:53 PM EST (2/13)
Length of Visible Light 11h 47m
Length of Day
10h 56m
Waxing Crescent, 13% of the Moon is Illuminated
Feb 13
Waxing Crescent
Feb 17
First Quarter
Feb 25
Full
Mar 4
Last Quarter
Mar 11
New

Hourly Weather History & Observations

Time (EST) Temp. Dew Point Humidity Pressure Visibility Wind Dir Wind Speed Gust Speed Precip Events Conditions
12:53 AM 48.9 °F 46.0 °F 90% 29.91 in 4.0 mi Calm Calm - 0.03 in Rain Light Rain
1:53 AM 48.9 °F 46.9 °F 93% 29.86 in 6.0 mi Calm Calm - 0.03 in Rain Light Rain
2:01 AM 48.2 °F 46.4 °F 93% 29.86 in 6.0 mi Calm Calm - 0.00 in Rain Light Rain
2:53 AM 48.9 °F 48.0 °F 97% 29.82 in 4.0 mi ESE 3.5 mph - 0.02 in   Overcast
3:00 AM 48.2 °F 48.2 °F 100% 29.83 in 5.0 mi Variable 4.6 mph - N/A   Overcast
3:53 AM 50.0 °F 48.0 °F 93% 29.83 in 5.0 mi Calm Calm - 0.01 in   Overcast
4:53 AM 48.9 °F 48.0 °F 97% 29.82 in 10.0 mi Calm Calm - 0.00 in   Overcast
5:29 AM 48.2 °F 46.4 °F 93% 29.81 in 8.0 mi Variable 3.5 mph - N/A   Overcast
5:53 AM 48.0 °F 46.0 °F 93% 29.80 in 6.0 mi Calm Calm - N/A   Overcast
6:04 AM 48.2 °F 46.4 °F 93% 29.79 in 3.0 mi ESE 3.5 mph - N/A   Overcast
6:13 AM 48.2 °F 46.4 °F 93% 29.81 in 2.5 mi Calm Calm - 0.01 in   Overcast
6:49 AM 48.2 °F 46.4 °F 93% 29.79 in 3.0 mi Calm Calm - 0.01 in   Overcast
6:53 AM 48.0 °F 46.9 °F 96% 29.78 in 3.0 mi ENE 3.5 mph - 0.01 in   Overcast
7:53 AM 48.0 °F 46.9 °F 96% 29.81 in 3.0 mi Calm Calm - N/A   Overcast
8:01 AM 48.2 °F 46.4 °F 93% 29.78 in 2.5 mi Variable 3.5 mph - N/A   Overcast
8:08 AM 48.2 °F 46.4 °F 93% 29.84 in 2.0 mi NW 6.9 mph - N/A   Overcast
8:34 AM 48.2 °F 46.4 °F 93% 29.81 in 1.8 mi Calm Calm - N/A   Overcast
8:50 AM 48.2 °F 46.4 °F 93% 29.82 in 2.5 mi Calm Calm - N/A   Overcast
8:53 AM 48.0 °F 46.9 °F 96% 29.80 in 2.5 mi ESE 3.5 mph - N/A   Overcast
9:02 AM 48.2 °F 46.4 °F 93% 29.79 in 2.5 mi ESE 4.6 mph - N/A   Overcast
9:29 AM 48.2 °F 48.2 °F 100% 29.77 in 3.0 mi Variable 4.6 mph - N/A   Overcast
9:53 AM 48.9 °F 48.0 °F 97% 29.81 in 4.0 mi Calm Calm - N/A   Overcast
10:53 AM 51.1 °F 50.0 °F 96% 29.76 in 3.0 mi Variable 3.5 mph - N/A   Overcast
11:02 AM 51.8 °F 50.0 °F 94% 29.78 in 2.5 mi SW 3.5 mph - N/A   Overcast
11:21 AM 51.8 °F 50.0 °F 94% 29.77 in 1.2 mi SSW 3.5 mph - N/A   Overcast
11:31 AM 51.8 °F 50.0 °F 94% 29.76 in 1.0 mi Variable 3.5 mph - N/A   Overcast
11:53 AM 51.1 °F 51.1 °F 100% 29.78 in 1.2 mi West 4.6 mph - N/A   Overcast
12:46 PM 53.6 °F 51.8 °F 94% 29.74 in 2.0 mi WSW 5.8 mph - N/A   Overcast
12:53 PM 53.1 °F 52.0 °F 96% 29.71 in 2.5 mi Calm Calm - N/A   Overcast
1:06 PM 53.6 °F 51.8 °F 94% 29.75 in 4.0 mi West 5.8 mph - N/A   Overcast
1:20 PM 55.4 °F 53.6 °F 94% 29.72 in 6.0 mi Variable 3.5 mph - N/A   Overcast
1:39 PM 57.2 °F 53.6 °F 88% 29.71 in 10.0 mi West 8.1 mph - N/A   Overcast
1:53 PM 57.9 °F 53.1 °F 84% 29.71 in 10.0 mi WSW 16.1 mph 24.2 mph N/A   Mostly Cloudy
2:46 PM 57.2 °F 48.2 °F 72% 29.75 in 10.0 mi West 23.0 mph 27.6 mph N/A   Overcast
2:53 PM 57.9 °F 48.9 °F 72% 29.72 in 10.0 mi West 18.4 mph 27.6 mph 0.00 in Rain Light Rain
3:53 PM 55.0 °F 48.0 °F 77% 29.74 in 10.0 mi West 10.4 mph - 0.01 in Rain Light Rain
4:53 PM 54.0 °F 48.0 °F 80% 29.75 in 10.0 mi SW 5.8 mph - 0.00 in   Overcast
5:53 PM 53.1 °F 48.0 °F 83% 29.78 in 10.0 mi SSW 5.8 mph - N/A   Partly Cloudy
6:53 PM 53.1 °F 48.9 °F 86% 29.79 in 10.0 mi WSW 3.5 mph - N/A   Partly Cloudy
7:22 PM 53.6 °F 48.2 °F 82% 29.79 in 10.0 mi WSW 5.8 mph - N/A   Overcast
7:53 PM 53.1 °F 48.9 °F 86% 29.80 in 10.0 mi WSW 4.6 mph - N/A   Overcast
8:34 PM 53.6 °F 48.2 °F 82% 29.82 in 10.0 mi West 6.9 mph - N/A   Mostly Cloudy
8:53 PM 53.1 °F 48.0 °F 83% 29.83 in 10.0 mi West 9.2 mph - N/A   Mostly Cloudy
9:53 PM 51.1 °F 41.0 °F 68% 29.86 in 10.0 mi West 10.4 mph - 0.01 in   Clear
10:53 PM 50.0 °F 41.0 °F 71% 29.88 in 10.0 mi WNW 5.8 mph - N/A   Clear
11:53 PM 48.9 °F 41.0 °F 74% 29.90 in 10.0 mi West 3.5 mph - N/A   Clear